Location: Conjunto Santa Maria
(19.9513°S, 43.9599°W)
Time: 13:09:29
(UTC+00:00)

NOSS 3-3 (A) - Pass Details

Date: 21 January 2021
Orbit: 816 x 1396 km, 63.4° (Epoch: 01 March)

Event Time Altitude Azimuth Distance (km) Brightness Sun altitude
Rises 22:33:14 0° 200° (SSW) 3,587 7.7 -12.1°
Reaches altitude 10° 22:35:56 10° 195° (SSW) 2,572 6.8 -12.6°
Maximum altitude 22:41:40 54° 118° (ESE) 1,010 3.9 -13.8°
Enters shadow 22:45:19 20° 47° (NE) 1,800 4.8 -14.6°
